Hourly Data Report for October 07, 2014

All times are specified in Local Standard Time (LST). Add 1 hour to adjust for Daylight Saving Time where and when it is observed.

WINNIPEG A CS
MANITOBA

49°55'00.000" N
97°14'58.000" W
238.70 m
502S001
71849
XWG

Download Data

Hourly Data (October 2014)
Hourly Data Report for October 7, 2014
Temp Definition
°C
Dew Point Temp Definition
°C
Rel Hum Definition
%
Wind Dir Definition
10's deg

Wind Spd Definition
km/h
Visibility Definition
km
Stn Press Definition
kPa
Hmdx Definition


Wind Chill Definition


Weather Definition


TIME
00:00 3.7 0.7 81 25 9   96.65     LegendNANA
01:00 3.4 0.6 82 26 13   96.67     LegendNANA
02:00 3.5 1.9 89 28 14   96.69     LegendNANA
03:00 3.8 2.3 90 30 24   96.71     LegendNANA
04:00 1.8 -0.2 86 33 31   96.85     LegendNANA
05:00 0.8 -1.6 84 32 25   96.94     LegendNANA
06:00 0.3 -1.9 86 32 22   97.07     LegendNANA
07:00 0.2 -2.0 86 31 21   97.16     LegendNANA
08:00 1.7 -0.6 84 30 22   97.24     LegendNANA
09:00 2.9 0.6 85 30 27   97.31     LegendNANA
10:00 3.6 0.4 80 30 33   97.38     LegendNANA
11:00 4.3 0.6 77 31 37   97.46     LegendNANA
12:00 4.2 -0.2 73 31 36   97.54     LegendNANA
13:00 6.2 0.3 66 31 42   97.59     LegendNANA
14:00 6.7 -0.9 58 31 40   97.64     LegendNANA
15:00 6.2 -2.2 55 31 46   97.72     LegendNANA
16:00 5.8 -0.9 62 31 31   97.79     LegendNANA
17:00 5.1 -1.4 62 32 32   97.84     LegendNANA
18:00 4.4 -1.2 67 32 15   97.90     LegendNANA
19:00 4.0 -1.5 67 32 23   98.00     LegendNANA
20:00 2.0 -1.9 75 32 20   98.06     LegendNANA
21:00 1.5 -1.7 79 32 18   98.07     LegendNANA
22:00 0.7 -1.8 84 31 17   98.12     LegendNANA
23:00 1.0 -1.6 83 32 19   98.16     LegendNANA

Notes on Data Quality.

Legend

  • E = Estimated
  • M = Missing
  • NA = Not Available
  • ‡ = Partner data that is not subject to review by the National Climate Archives
Date modified: